Weather History for KUCP - June, 2013

Change the Weather History Date:

Friday, June 14, 2013

  Actual Average Record
Temperature  
Mean Temperature 61 °F -  
Max Temperature 72 °F 81 °F 92 °F (1943)
Min Temperature 50 °F 54 °F 34 °F (1978)
Degree Days  
Heating Degree Days 4    
Growing Degree Days 11 (Base 50)    
Moisture  
Dew Point 55 °F    
Average Humidity 87    
Maximum Humidity 100    
Minimum Humidity 57    
Precipitation  
Precipitation 0.00 in - - ()
Sea Level Pressure  
Sea Level Pressure 29.99 in    
Wind  
Wind Speed 2 mph (NW)    
Max Wind Speed 13 mph    
Max Gust Speed 17 mph    
Visibility 8 miles    
Events      
Averages and records for this station are not official NWS values.
T = Trace of Precipitation, MM = Missing Value Source: NWS Daily Summary

Daily Weather History Graph

Daily Weather History Graph

Search for Another Location

Airport or City:

Trip Planner

Search our weather history database for the weather conditions in past years. The results will help you decide how hot, cold, wet, or windy it might be!

Date:

Astronomy

Jun. 14, 2013 Rise Set
Actual Time 5:48 AM EDT 8:55 PM EDT
Civil Twilight 5:15 AM EDT 9:28 PM EDT
Nautical Twilight 4:32 AM EDT 10:11 PM EDT
Astronomical Twilight 3:41 AM EDT 11:02 PM EDT
Moon 11:24 AM EDT (6/14) No Moon Set
Length of Visible Light 16h 13m
Length of Day
15h 06m
Waxing Crescent, 30% of the Moon is Illuminated
Jun 14
Waxing Crescent
Jun 16
First Quarter
Jun 23
Full
Jun 30
Last Quarter
Jul 8
New

Hourly Weather History & Observations

Time (EDT) Temp. Dew Point Humidity Pressure Visibility Wind Dir Wind Speed Gust Speed Precip Events Conditions
12:56 AM 52.9 °F 52.0 °F 97% 29.90 in 10.0 mi Calm Calm - N/A   Clear
1:56 AM 52.0 °F 52.0 °F 100% 29.90 in 8.0 mi Calm Calm - N/A   Clear
2:24 AM 53.6 °F 53.6 °F 100% 29.86 in 9.0 mi Calm Calm - N/A   Mostly Cloudy
2:56 AM 52.9 °F 52.9 °F 100% 29.90 in 6.0 mi Calm Calm - N/A   Partly Cloudy
3:47 AM 51.8 °F 51.8 °F 100% 29.87 in 1.8 mi Calm Calm - N/A   Clear
3:56 AM 50.9 °F 50.9 °F 100% 29.91 in 1.2 mi Calm Calm - N/A   Clear
3:58 AM 51.8 °F 51.8 °F 100% 29.87 in 2.0 mi Calm Calm - N/A   Clear
4:06 AM 51.8 °F 51.8 °F 100% 29.87 in 3.0 mi Calm Calm - N/A   Clear
4:13 AM 51.8 °F 51.8 °F 100% 29.87 in 2.0 mi Calm Calm - N/A   Partly Cloudy
4:30 AM 50.0 °F 50.0 °F 100% 29.87 in 4.0 mi Calm Calm - N/A   Mostly Cloudy
4:56 AM 52.0 °F 52.0 °F 100% 29.92 in 5.0 mi Calm Calm - N/A   Overcast
5:56 AM 54.0 °F 54.0 °F 100% 29.94 in 6.0 mi Calm Calm - N/A   Overcast
6:13 AM 55.4 °F 55.4 °F 100% 29.89 in 8.0 mi Calm Calm - N/A   Overcast
6:47 AM 55.4 °F 55.4 °F 100% 29.91 in 6.0 mi Calm Calm - N/A   Overcast
6:56 AM 54.9 °F 54.9 °F 100% 29.96 in 5.0 mi Variable 4.6 mph - N/A   Overcast
7:56 AM 55.9 °F 55.9 °F 100% 29.98 in 3.0 mi Calm Calm - N/A   Overcast
8:56 AM 56.8 °F 55.9 °F 97% 30.01 in 5.0 mi WNW 6.9 mph - N/A   Overcast
9:36 AM 57.2 °F 55.4 °F 94% 29.98 in 10.0 mi NW 5.8 mph - N/A   Overcast
9:56 AM 57.9 °F 55.9 °F 93% 30.03 in 8.0 mi NW 6.9 mph - N/A   Overcast
10:07 AM 57.2 °F 55.4 °F 94% 29.99 in 9.0 mi Variable 5.8 mph - N/A   Overcast
10:56 AM 59.0 °F 55.9 °F 90% 30.05 in 10.0 mi NNW 4.6 mph - N/A   Overcast
11:56 AM 59.9 °F 56.8 °F 90% 30.08 in 6.0 mi Variable 5.8 mph - N/A   Overcast
12:31 PM 62.6 °F 57.2 °F 82% 30.04 in 9.0 mi Variable 5.8 mph - N/A   Mostly Cloudy
12:56 PM 63.9 °F 57.9 °F 81% 30.07 in 10.0 mi WNW 8.1 mph - N/A   Mostly Cloudy
1:23 PM 66.2 °F 57.2 °F 73% 30.04 in 10.0 mi NW 8.1 mph - N/A   Mostly Cloudy
1:56 PM 69.8 °F 57.2 °F 64% 30.03 in 10.0 mi Variable 5.8 mph - N/A   Mostly Cloudy
2:23 PM 69.8 °F 57.2 °F 64% 30.02 in 10.0 mi NNW 5.8 mph - N/A   Mostly Cloudy
2:56 PM 72.0 °F 57.9 °F 61% 30.06 in 10.0 mi Variable 6.9 mph - N/A   Partly Cloudy
3:56 PM 72.0 °F 55.9 °F 57% 30.05 in 10.0 mi North 11.5 mph - N/A   Partly Cloudy
4:56 PM 71.6 °F 55.4 °F 57% 30.01 in 10.0 mi North 10.4 mph - N/A   Partly Cloudy
5:56 PM 70.0 °F 55.9 °F 61% 30.06 in 10.0 mi NNW 12.7 mph 17.3 mph N/A   Partly Cloudy
6:56 PM 70.0 °F 55.9 °F 61% 30.06 in 10.0 mi NNW 11.5 mph - N/A   Clear
7:56 PM 68.0 °F 54.9 °F 63% 30.07 in 10.0 mi NW 5.8 mph - N/A   Clear
8:56 PM 63.9 °F 54.9 °F 72% 30.08 in 10.0 mi NNW 5.8 mph - N/A   Clear
9:56 PM 61.0 °F 54.9 °F 80% 30.10 in 10.0 mi Calm Calm - N/A   Clear
10:56 PM 59.9 °F 54.0 °F 81% 30.13 in 10.0 mi Calm Calm - N/A   Clear
11:56 PM 54.0 °F 52.0 °F 93% 30.14 in 10.0 mi Calm Calm - N/A   Clear